SCP
0 0 0 0 0 0 0 0 0 0 0 0 0 0 0 0 0 0 0 0 0 0 0 0 0 0 0 0 0 0 0 0 0 0 0 0 0 0 0 0 0 0 0 0 0 0 0 0 0 0 0 0 0 0
-0 0 0 0 0 0 0 0 0 0 0 0 0 0 0 0 0 0 0 0 0 0 0 0 0 0 0 0 0 0 0 0 0 0 0 0 0 0 0 0 0 0 0 0 0 0 0 0 0 0 0 0 0 0
0 0 0 0 0 0 0 0 0 0 0 0 0 0 0 0 0 0 0 0 0 0 0 0 0 0 0 0 0 0 0 0 0 0 0 0 0 0 0 0 0 0 0 0 0 0 0 0 0 0 0 0 0 0
0 0 0 0 0 0 0 0 0 0 0 0 0 0 0 0 0 0 0 0 0 0 0 0 0 0 0 0 0 0 0 0 0 0 0 0 0 0 0 0 0 0 0 0 0 0 0 0 0 0 0 0 0 0
0 0 0 0 0 0 0 0 0 0 0 0 0 0 0 0 0 0 0 0 0 0 0 0 0 0 0 0 0 0 0 0 0 0 0 0 0 0 0 0 0 0 0 0 0 0 0 0 0 0 0 0 0 0
0 0 0 0 0 0 0 0 0 0 0 0 0 0 0 0 0 0 0 0 0 0 0 0 0 0 0 0 0 0 0 0 0 0 0 0 0 0 0 0 0 0 0 0 0 0 0 0 0 0 0 0 0 0
0 0 0 0 0 0 0 0 0 0 0 0 0 0 0 0 0 0 0 0 0 0 0 0 0 0 0 0 0 0 0 0 0 0 0 0 0 0 0 0 0 0 0 0 0 0 0 0 0 0 0 0 0 0
0 0 0 0 0 0 0 0 0 0 0 0 0 0 0 0 0 0 0 0 0 0 0 0 0 0 0 0 0 0 0 0 0 0 0 0 0 0 0 0 0 0 0 0 0 0 0 0 0 0 0 0 0 0
0 0 0 0 0 0 0 0 0 0 0 0 0 0 0 0 0 0 0 0 0 0 0 0 0 0 0 0 0 0 0 0 0 0 0 0 0 0 0 0 0 0 0 0 0 0 0 0 0 0 0 0 0 0
0 0 0 0 0 0 0 0 0 0 0 0 0 0 0 0 0 0 0 0 0 0 0 0 0 0 0 0 0 0 0 0 0 0 0 0 0 0 0 0 0 0 0 0 0 0 0 0 0 0 0 0 0 0
0 0 0 0 0 0 0 0 0 0 0 0 0 0 0 0 0 0 0 0 0 0 0 0 0 0 0 0 0 0 0 0 0 0 0 0 0 0 0 0 0 0 0 0 0 0 0 0 0 0 0 0 0 0
0 0 0 0 0 0 0 0 0 0 0 0 0 0 0 0 0 0 0 0 0 0 0 0 0 0 0 0 0 0 0 0 0 0 0 0 0 0 0 0 0 0 0 0 0 0 0 0 0 0 0 0 0 0
0 0 0 0 0 0 0 0 0 0 0 0 0 0 0 0 0 0 0 0 0 0 0 0 0 0 0 0 0 0 0 0 0 0 0 0 0 0 0 0 0 0 0 0 0 0 0 0 0 0 0 0 0 0
0 0 0 0 0 0 0 0 0 0 0 0 0 0 0 0 0 0 0 0 0 0 0 0 0 0 0 0 0 0 0 0 0 0 0 0 0 0 0 0 0 0 0 0 0 0 0 0 0 0 0 0 0 0
0 -0 0 0 0 0 0 0 0 0 0 0 0 0 0 0 0 0 0 0 0 0 0 0 0 0 0 0 0 0 0 0 0 0 0 0 0 0 0 0 0 0 0 0 0 0 0 0 0 0 0 0 0 -0
-0 0 0 0 0 0 0 0 0 0 0 0 0 0 0 0 0 0 0 0 0 0 0 0 0 0 0 0 0 0 0 0 0 0 0 0 0 0 0 0 0 0 0 0 0 0 0 0 0 0 0 0 0 0
0 0 0 0 0 0 0 0 0 0 0 0 0 0 0 0 0 0 0 0 0 0 0 0 0 0 0 0 0 0 0 0 0 0 0 0 0 0 0 0 0 0 0 0 0 0 -0 0 0 0 0 -0 0 0
0 0 0 0 0 0 0 0 0 0 0 0 0 -0 0 0 0 0 0 0 0 0 0 0 0 0 0 0 0 0 0 0 0 0 0 0 0 0 0 -0 0 0 0 0 0 0 0 0 0 0 0 0 0 0
0 0 0 0 0 0 0 0 0 0 0 0 -0 -0 0 0 0 0 0 0 0 0 0 0 0 0 0 0 0 0 0 0 0 0 0 0 0 0 0 0 0 0 0 0 0 0 0 0 0 0 0 0 0 -0
0 0 0 0 0 0 0 0 0 0 0 0 0 -0 0 0 0 0 0 0 0 0 0 0 0 0 0 0 0 0 0 0 0 0 0 0 0 0 0 0 0 0 0 0 0 0 0 0 0 0 0 0 0 0
0 0 0 0 0 0 0 0 0 0 0 -0 -0 0 0 0 0 0 0 0 0 0 0 0 0 0 0 0 0 0 0 0 0 0 0 0 0 0 0 0 0 0 0 0 0 0 0 0 -0 -0 0 0 0 0
0 0 0 0 0 0 0 0 0 0 0 0 0 0 0 0 0 0 0 0 0 0 0 0 0 0 0 0 0 0 0 0 0 0 0 0 0 0 0 0 0 0 0 0 0 0 -0 -0 0 0 0 0 0 0
0 0 0 0 0 0 0 0 0 0 0 0 0 0 0 0 0 0 0 0 0 0 0 0 0 0 0 0 0 0 0 0 0 0 0 0 0 0 0 0 0 0 0 -0 -0 0 0 -0 -0 0 -0 -0 0 0
0 0 0 0 0 0 0 0 0 0 0 0 0 0 0 0 0 0 0 0 0 0 0 0 0 0 0 0 0 0 0 0 0 0 0 0 0 0 0 0 -0 -0 0 0 0 0 0 -0 -0 0 -0 0 0 0
0 0 0 0 0 0 0 0 0 0 0 0 0 0 0 0 0 0 0 0 0 0 0 0 0 0 0 0 0 0 -0 0 0 0 0 0 0 0 0 0 0 -0 -0 -0 -0 -0 -0 -0 -0 0 0 0 0 0
0 0 0 0 0 0 0 0 0 0 0 0 0 0 0 0 0 0 0 0 0 0 0 0 0 0 0 0 0 0 -0 0 0 0 0 0 0 0 0 0 0 -0 -0 -0 -0 -0 0 0 0 0 0 0 0 0
0 0 0 0 0 0 0 0 0 0 0 0 0 0 0 0 0 0 0 0 0 0 0 0 0 0 0 0 0 0 0 0 0 0 -0 -0 -0 0 0 0 -0 -0 -0 0 0 0 0 0 0 0 0 0 0 0
0 0 0 0 0 0 0 0 0 0 0 0 0 0 0 0 0 0 0 0 0 0 0 0 0 -0 0 0 0 0 0 0 0 0 0 0 0 -0 -0 -0 -0 0 0 0 0 0 0 0 0 0 0 0 0 0
0 0 0 0 0 0 0 0 0 0 0 0 0 0 0 0 0 0 0 0 0 0 0 0 0 0 0 0 0 0 0 0 0 0 0 0 0 -0 -0 -0 0 0 0 0 0 0 0 0 0 0 0 0 0 0
0 0 0 0 0 0 0 0 0 0 0 0 0 0 0 0 0 0 0 0 0 0 0 0 0 0 0 0 0 0 0 0 0 0 0 0 -0 -0 0 0 0 0 0 0 0 0 -0 0 0 -0 -0 -0 -0 0
0 0 0 0 0 0 0 0 0 0 0 0 0 0 0 0 0 0 0 0 0 0 0 0 0 0 0 0 0 0 0 0 0 0 -0 0 -0 -0 0 0 -0 -0 0 0 0 0 0 -0 -0 -0 -0 -0 0 0
0 0 0 0 0 0 0 0 0 0 0 0 0 0 0 0 0 0 0 0 0 0 0 0 0 0 0 0 0 0 0 0 -0 -0 -0 -0 -0 -0 -0 -0 -0 0 0 0 0 0 0 0 0 -0 0 0 0 0
0 0 0 0 0 0 0 0 0 0 0 0 0 0 0 0 0 0 0 0 0 0 0 0 0 0 0 0 0 0 0 0 0 -0 0 0 -0 -0 -0 -0 0 0 0 0 -0 0 -0 0 0 0 0 0 0 0
Wind_Speed_500mb
32 34 29 26 26 26 22 13 9 12 12 16 20 13 15 13 10 6 10 7 3 10 22 14 11 8 16 12 4 12 7 11 10 9 6 4 4 2 8 4 4 8 10 4 6 7 9 2 3 10 16 28 25 22
31 34 34 29 25 26 20 14 12 13 13 17 18 12 15 14 11 5 14 8 11 19 16 15 26 21 20 16 12 7 0 3 8 9 2 6 5 6 4 4 6 3 10 11 9 8 6 5 24 38 30 32 26 19
31 32 35 35 26 24 25 15 15 17 19 22 18 17 17 16 14 11 9 10 12 16 29 26 25 10 7 3 10 7 4 2 6 7 14 5 8 7 5 5 7 5 9 9 8 7 5 28 25 25 25 27 18 11
31 32 33 35 30 24 27 21 20 21 22 26 22 20 19 18 17 16 11 9 10 8 7 9 18 21 19 9 4 4 8 9 11 9 10 6 6 7 7 6 7 6 8 13 4 1 11 14 31 34 25 19 12 10
29 30 31 32 34 30 27 20 21 26 28 30 28 24 21 20 18 18 14 13 16 10 7 20 10 22 21 20 23 20 10 7 3 7 7 3 7 8 5 6 1 8 14 9 10 34 13 27 28 21 20 18 12 5
34 30 29 31 31 30 27 25 23 23 28 30 29 25 21 20 15 11 7 14 23 11 7 7 8 17 20 16 12 15 18 10 7 9 6 6 6 7 7 4 9 8 22 23 17 46 37 35 25 19 19 15 6 5
34 32 29 30 30 29 28 29 24 23 25 24 21 20 20 21 18 15 4 12 25 9 5 11 14 11 17 14 11 8 4 8 6 9 6 10 6 8 6 7 18 19 26 45 52 60 40 39 23 23 14 9 4 6
33 32 28 28 29 29 28 30 25 23 23 20 18 16 18 18 16 22 12 14 15 9 7 4 8 2 17 8 6 5 5 6 8 7 6 6 8 7 4 6 38 45 51 56 57 19 32 37 34 22 11 5 5 11
35 32 30 28 27 28 25 28 25 23 20 16 13 11 11 11 11 6 15 16 20 20 6 5 5 8 16 8 6 6 4 6 3 4 2 5 3 4 14 52 52 58 40 49 40 37 38 32 25 16 8 9 11 19
33 32 29 28 27 27 26 27 23 22 15 12 12 8 9 11 13 18 13 9 14 15 12 8 7 5 13 6 3 5 7 3 3 5 9 6 5 8 54 60 64 50 50 52 51 42 35 29 21 14 9 11 19 23
31 30 28 26 23 25 25 21 21 13 9 12 8 6 9 14 15 10 9 8 11 5 14 13 18 4 12 8 6 3 5 1 4 8 9 1 4 8 53 50 48 46 46 34 16 20 17 13 18 13 15 20 20 21
27 27 25 23 21 22 20 17 18 10 11 9 9 9 12 12 9 6 7 3 8 11 13 15 17 15 10 10 9 5 6 4 7 7 7 3 7 26 51 57 55 52 37 30 20 24 21 14 10 14 19 21 19 21
24 22 21 19 17 19 17 15 14 9 16 6 5 5 5 7 2 11 12 7 5 10 17 18 6 16 9 6 11 5 6 8 8 4 6 8 14 56 62 57 48 37 32 27 26 22 17 13 15 16 25 23 21 18
17 17 16 16 13 16 14 12 9 14 12 7 7 8 9 9 9 9 8 9 17 13 35 41 19 10 8 6 6 8 2 7 4 4 9 6 58 68 60 53 48 43 35 31 28 23 17 18 27 29 28 26 24 18
11 11 13 10 15 16 13 10 8 22 11 7 7 6 11 7 12 17 21 16 13 6 30 21 8 9 2 8 1 7 5 6 9 10 7 30 71 69 60 56 45 45 40 33 27 22 21 29 30 30 27 22 19 16
4 5 8 11 13 12 11 9 16 18 5 7 10 5 12 5 9 21 28 21 13 6 22 12 8 8 4 9 7 9 13 8 7 7 12 51 72 62 58 53 45 42 37 32 26 21 26 29 23 20 15 13 11 10
3 1 4 9 11 10 10 20 15 11 7 7 8 20 21 13 7 22 29 29 32 8 7 7 8 10 8 7 4 8 11 8 13 20 48 68 63 58 52 50 45 41 38 31 26 30 29 22 17 18 13 10 11 12
4 1 5 9 11 12 18 8 7 7 10 10 6 7 16 23 32 35 40 42 18 5 14 9 15 7 9 9 4 7 8 16 28 56 60 58 51 44 44 44 41 41 37 30 25 27 26 22 21 15 14 5 5 10
1 4 6 9 22 7 5 8 6 5 9 10 10 4 15 16 30 34 38 33 21 7 10 7 10 6 7 7 11 22 39 46 63 52 48 43 38 38 37 33 39 39 36 30 29 28 22 20 20 17 14 8 7 7
4 1 7 16 17 3 5 6 6 6 6 5 7 12 17 30 40 35 28 23 8 6 6 5 7 14 17 20 36 49 56 62 62 50 40 37 31 30 34 36 40 41 35 29 24 20 23 16 17 21 8 6 2 5
3 6 15 19 6 6 6 4 8 7 6 6 10 27 10 15 20 10 9 19 3 6 4 2 13 25 23 36 43 57 61 56 52 48 46 41 34 29 34 35 37 41 33 32 29 28 24 14 14 12 10 6 9 16
11 10 9 4 4 3 8 10 7 6 2 3 12 14 9 7 1 7 10 19 9 9 11 2 25 41 47 57 60 52 48 44 36 32 36 37 43 43 42 41 36 33 33 31 32 30 27 20 13 11 4 11 20 23
3 2 4 4 5 5 8 10 7 12 4 5 7 7 2 6 8 10 11 7 8 3 9 18 39 46 61 58 50 44 41 38 35 34 32 32 33 33 37 38 31 29 35 32 27 24 26 23 13 11 14 17 6 12
6 5 5 5 7 8 8 2 2 4 6 5 2 4 5 6 5 10 1 4 6 10 13 46 52 52 47 42 43 43 35 32 29 29 28 32 32 30 34 34 24 21 23 33 27 18 18 20 22 19 11 4 12 6
6 4 5 6 8 8 6 6 3 4 3 1 2 2 5 10 4 5 5 9 28 19 35 49 42 41 48 44 44 41 36 34 33 29 28 28 31 40 31 34 25 23 26 29 28 25 21 17 20 19 21 17 13 5
4 4 6 5 3 4 2 6 5 3 1 7 7 2 6 3 4 7 5 26 25 37 40 45 48 41 38 37 38 37 31 27 23 25 28 32 35 41 34 32 32 27 27 26 23 16 12 12 13 17 21 19 12 8
4 6 7 7 10 6 3 5 3 3 3 5 2 2 4 4 8 5 13 12 44 50 42 33 29 25 24 27 28 29 27 23 21 16 27 32 36 30 25 30 32 32 29 25 20 20 23 11 7 18 27 19 10 9
7 6 7 8 13 11 6 6 3 5 4 5 1 8 5 7 3 6 13 20 41 47 37 38 29 19 19 17 26 32 30 25 23 27 27 30 33 26 26 19 22 15 21 24 20 17 14 13 8 18 25 20 12 11
8 19 21 10 7 6 11 5 6 9 11 8 5 5 5 7 15 20 21 13 27 24 28 31 28 20 16 24 23 39 34 35 38 34 36 40 39 36 34 25 16 17 20 17 9 4 4 12 14 17 10 12 13 16
11 23 12 15 7 8 12 11 14 19 22 22 14 19 19 24 27 27 23 21 28 32 26 23 25 24 20 21 31 34 33 34 34 19 31 45 42 33 26 24 26 28 16 10 5 8 14 10 11 9 10 11 13 19
14 15 13 9 7 15 17 17 15 13 12 11 15 19 15 15 29 30 26 25 26 26 25 29 24 21 28 36 33 31 28 23 16 18 25 36 26 26 26 26 25 19 15 7 3 4 5 2 3 3 9 17 25 32
6 7 5 7 5 9 10 8 7 7 6 7 7 13 17 13 11 12 19 16 19 21 25 29 35 39 34 24 27 20 13 21 23 24 34 28 26 31 27 24 21 17 13 8 6 6 1 2 5 10 17 22 17 23
3 6 6 3 8 7 9 6 7 6 6 5 5 10 10 5 6 6 12 13 13 19 26 25 24 31 30 32 29 19 17 15 19 32 36 27 34 32 27 20 21 21 15 12 6 6 10 5 5 10 9 13 18 15
Wind_Direction_500mb
331 332 322 312 309 308 306 298 347 328 310 306 297 284 286 282 290 334 169 131 220 273 278 254 265 319 344 359 55 331 29 4 43 64 104 202 114 225 86 114 165 145 126 132 93 90 253 76 168 182 152 131 142 140
321 323 328 319 312 307 304 287 286 284 292 308 303 284 282 278 269 291 196 239 273 258 272 256 249 266 277 311 297 343 261 147 154 89 81 110 86 54 113 175 27 62 176 163 164 209 288 99 132 128 136 140 150 137
310 315 319 323 308 302 304 271 283 283 277 292 306 297 277 273 265 260 247 250 280 280 288 263 235 200 200 355 350 297 12 115 141 125 143 144 99 124 129 233 111 73 146 98 92 279 127 118 122 129 131 130 130 116
304 305 309 317 318 302 297 270 261 268 277 285 290 292 274 265 258 255 258 255 291 291 291 268 223 242 192 190 271 6 75 98 111 108 88 113 125 182 187 157 124 190 102 127 45 195 128 128 140 139 133 126 131 128
305 299 298 307 317 306 302 293 268 266 271 281 289 286 266 257 257 253 253 235 240 240 284 296 278 194 191 221 246 242 223 169 99 71 70 163 141 113 49 85 121 182 166 157 199 188 151 150 145 149 141 137 126 100
303 300 293 296 308 304 302 296 283 275 276 279 281 277 256 248 248 245 229 220 210 229 303 313 312 192 184 189 189 224 231 207 168 133 135 132 136 129 103 161 262 233 206 150 146 155 139 139 143 151 143 133 113 7
299 297 289 288 296 302 297 298 291 284 281 280 274 266 245 237 229 214 200 175 176 180 262 307 314 196 183 179 174 157 168 189 177 130 123 149 127 120 105 163 185 140 139 136 140 137 123 143 150 149 138 118 68 36
293 294 287 284 287 299 292 296 289 286 279 273 265 252 233 232 238 228 176 159 178 205 257 249 267 224 181 157 146 148 134 125 56 105 123 118 99 71 100 205 144 138 138 140 145 167 162 151 150 144 135 132 138 108
283 289 282 277 279 293 289 293 289 287 273 259 250 215 206 211 198 181 192 204 218 219 268 210 188 217 169 125 148 116 95 52 17 84 76 103 323 188 197 162 159 156 155 151 145 142 144 153 151 146 150 144 138 111
280 282 274 268 275 290 284 292 291 290 255 238 187 164 190 174 165 148 159 181 193 209 227 237 227 249 165 128 75 99 50 124 111 260 124 69 231 269 172 170 166 166 161 156 141 147 160 161 166 160 158 143 122 117
281 276 271 259 266 282 287 283 293 290 196 170 187 218 151 154 152 179 199 191 186 233 212 233 210 177 172 125 161 141 161 143 122 252 131 207 271 212 178 169 167 164 164 168 169 155 163 165 170 176 155 136 126 127
278 269 259 251 260 280 279 270 290 248 175 181 234 260 142 174 200 178 201 210 187 213 200 184 199 200 151 157 110 175 120 65 218 154 97 182 248 171 167 156 156 158 164 156 157 164 159 164 171 164 146 130 120 135
276 257 246 244 248 280 254 267 287 224 194 189 229 235 173 158 135 186 195 229 203 205 180 175 172 174 138 142 83 111 116 208 126 75 210 221 168 161 156 154 155 164 163 155 158 160 161 157 146 144 132 128 125 119
259 246 242 234 271 260 240 259 265 187 171 206 208 199 203 194 229 201 205 198 217 206 183 185 155 158 136 85 136 109 199 104 98 147 227 214 169 163 161 163 161 166 169 170 167 162 157 147 138 130 119 110 109 105
233 245 244 256 264 222 230 251 226 176 200 230 216 235 224 336 301 309 309 255 237 331 178 143 128 136 100 106 74 112 124 225 196 216 223 181 172 167 166 169 173 171 171 171 166 161 152 148 141 132 127 120 110 98
218 273 262 229 201 209 219 225 173 177 253 231 242 261 281 333 320 352 359 13 29 301 182 179 128 99 156 134 134 173 145 205 242 215 200 167 167 171 173 178 180 176 174 170 163 155 156 157 151 136 137 149 148 120
177 269 4 172 183 185 183 154 158 207 238 250 239 232 268 287 298 348 349 343 334 239 183 141 110 181 117 90 135 160 179 205 193 172 163 165 169 172 177 179 178 174 171 164 158 151 145 149 160 171 188 188 208 201
123 104 144 165 166 167 187 190 200 226 245 241 258 68 277 267 297 319 332 340 345 257 179 185 124 95 134 142 222 212 167 151 161 157 158 163 167 171 173 172 173 173 170 164 155 155 168 181 176 182 193 205 203 161
217 162 180 175 165 168 201 205 213 258 259 287 286 267 256 304 315 304 314 327 322 231 168 134 100 139 165 183 158 167 161 155 153 152 156 162 165 164 167 171 169 171 166 162 171 182 187 203 204 191 177 173 112 146
313 41 201 199 189 253 229 215 212 253 263 270 296 339 297 282 291 300 317 339 350 140 75 68 161 168 154 175 179 167 158 155 154 150 152 156 160 165 172 172 172 170 170 172 179 183 173 165 184 184 201 198 216 252
227 201 191 190 224 268 299 297 235 234 266 242 342 319 260 281 279 292 330 358 73 40 24 54 172 156 161 166 164 154 156 162 170 176 173 166 170 176 172 174 174 179 183 186 185 181 178 162 138 142 175 228 308 306
117 121 181 255 305 233 257 248 231 179 334 328 299 263 217 186 225 354 31 33 20 15 12 352 151 149 149 153 155 157 159 167 170 168 169 169 168 172 177 178 179 185 187 184 185 194 195 187 161 163 281 316 312 319
70 34 274 244 260 245 266 253 205 176 239 207 241 269 244 104 99 64 50 13 308 312 58 129 159 150 149 152 157 163 169 167 164 165 167 172 172 172 176 176 171 175 181 183 193 193 190 190 196 217 267 289 261 108
268 267 251 248 215 271 266 263 136 138 262 261 278 329 17 60 103 85 204 251 116 139 159 130 137 138 143 153 165 174 170 163 156 157 166 166 165 170 169 171 186 184 200 208 193 195 197 194 212 232 246 209 182 120
298 293 304 276 240 245 177 169 201 253 154 101 269 213 171 153 136 175 145 172 195 147 141 140 143 149 147 151 155 157 160 163 162 163 174 176 164 157 160 162 164 158 156 163 168 177 185 203 222 243 260 249 220 174
251 259 247 299 305 298 75 166 205 155 154 213 211 208 193 186 117 109 181 160 170 158 151 154 158 162 160 162 158 167 167 171 174 168 167 173 174 169 171 179 175 171 169 177 186 200 232 204 219 228 207 208 220 230
292 229 269 286 297 286 234 43 109 244 273 21 22 262 197 147 68 36 97 131 181 183 191 178 169 160 157 163 171 169 166 169 193 177 163 169 173 177 184 182 180 177 189 203 234 243 217 224 276 217 199 193 217 256
274 242 232 271 230 211 178 210 270 74 195 237 215 30 65 34 57 349 31 163 171 178 181 183 180 182 183 184 187 185 182 176 178 172 164 168 177 180 171 173 179 203 223 226 227 220 261 261 237 189 198 207 222 274
296 324 336 345 353 64 41 55 9 42 10 28 87 59 77 77 67 62 59 116 176 169 185 193 193 190 202 195 189 190 190 183 180 178 184 173 170 179 190 195 220 207 182 184 194 306 204 186 165 174 194 217 256 291
337 351 350 359 27 30 18 37 66 70 68 73 82 99 96 87 72 74 71 109 148 167 171 176 187 168 153 182 181 185 190 191 195 206 207 188 187 191 196 208 187 174 177 168 178 82 72 155 182 216 247 266 284 291
346 355 1 6 40 42 79 80 67 63 67 79 88 99 106 96 81 80 88 103 127 140 146 149 157 190 177 172 168 173 185 195 203 188 181 176 178 187 170 172 182 180 171 172 193 222 233 2 184 280 308 313 310 312
15 33 32 18 8 13 19 45 45 46 50 60 69 102 122 91 68 54 88 110 140 143 147 155 163 167 167 168 179 173 174 187 194 183 174 177 164 162 162 172 182 191 195 215 238 229 309 350 319 322 323 327 336 319
4 53 70 25 358 357 20 45 51 77 62 79 101 122 108 89 96 111 114 124 154 172 168 163 164 184 193 209 212 208 192 196 178 180 183 169 173 183 178 177 172 172 180 185 192 239 257 258 334 323 312 316 318 319
Wind_Speed_850mb
32 34 29 26 26 26 22 13 9 12 12 16 20 13 15 13 10 6 10 7 3 10 22 14 11 8 16 12 4 12 7 11 10 9 6 4 4 2 8 4 4 8 10 4 6 7 9 2 3 10 16 28 25 22
31 34 34 29 25 26 20 14 12 13 13 17 18 12 15 14 11 5 14 8 11 19 16 15 26 21 20 16 12 7 0 3 8 9 2 6 5 6 4 4 6 3 10 11 9 8 6 5 24 38 30 32 26 19
31 32 35 35 26 24 25 15 15 17 19 22 18 17 17 16 14 11 9 10 12 16 29 26 25 10 7 3 10 7 4 2 6 7 14 5 8 7 5 5 7 5 9 9 8 7 5 28 25 25 25 27 18 11
31 32 33 35 30 24 27 21 20 21 22 26 22 20 19 18 17 16 11 9 10 8 7 9 18 21 19 9 4 4 8 9 11 9 10 6 6 7 7 6 7 6 8 13 4 1 11 14 31 34 25 19 12 10
29 30 31 32 34 30 27 20 21 26 28 30 28 24 21 20 18 18 14 13 16 10 7 20 10 22 21 20 23 20 10 7 3 7 7 3 7 8 5 6 1 8 14 9 10 34 13 27 28 21 20 18 12 5
34 30 29 31 31 30 27 25 23 23 28 30 29 25 21 20 15 11 7 14 23 11 7 7 8 17 20 16 12 15 18 10 7 9 6 6 6 7 7 4 9 8 22 23 17 46 37 35 25 19 19 15 6 5
34 32 29 30 30 29 28 29 24 23 25 24 21 20 20 21 18 15 4 12 25 9 5 11 14 11 17 14 11 8 4 8 6 9 6 10 6 8 6 7 18 19 26 45 52 60 40 39 23 23 14 9 4 6
33 32 28 28 29 29 28 30 25 23 23 20 18 16 18 18 16 22 12 14 15 9 7 4 8 2 17 8 6 5 5 6 8 7 6 6 8 7 4 6 38 45 51 56 57 19 32 37 34 22 11 5 5 11
35 32 30 28 27 28 25 28 25 23 20 16 13 11 11 11 11 6 15 16 20 20 6 5 5 8 16 8 6 6 4 6 3 4 2 5 3 4 14 52 52 58 40 49 40 37 38 32 25 16 8 9 11 19
33 32 29 28 27 27 26 27 23 22 15 12 12 8 9 11 13 18 13 9 14 15 12 8 7 5 13 6 3 5 7 3 3 5 9 6 5 8 54 60 64 50 50 52 51 42 35 29 21 14 9 11 19 23
31 30 28 26 23 25 25 21 21 13 9 12 8 6 9 14 15 10 9 8 11 5 14 13 18 4 12 8 6 3 5 1 4 8 9 1 4 8 53 50 48 46 46 34 16 20 17 13 18 13 15 20 20 21
27 27 25 23 21 22 20 17 18 10 11 9 9 9 12 12 9 6 7 3 8 11 13 15 17 15 10 10 9 5 6 4 7 7 7 3 7 26 51 57 55 52 37 30 20 24 21 14 10 14 19 21 19 21
24 22 21 19 17 19 17 15 14 9 16 6 5 5 5 7 2 11 12 7 5 10 17 18 6 16 9 6 11 5 6 8 8 4 6 8 14 56 62 57 48 37 32 27 26 22 17 13 15 16 25 23 21 18
17 17 16 16 13 16 14 12 9 14 12 7 7 8 9 9 9 9 8 9 17 13 35 41 19 10 8 6 6 8 2 7 4 4 9 6 58 68 60 53 48 43 35 31 28 23 17 18 27 29 28 26 24 18
11 11 13 10 15 16 13 10 8 22 11 7 7 6 11 7 12 17 21 16 13 6 30 21 8 9 2 8 1 7 5 6 9 10 7 30 71 69 60 56 45 45 40 33 27 22 21 29 30 30 27 22 19 16
4 5 8 11 13 12 11 9 16 18 5 7 10 5 12 5 9 21 28 21 13 6 22 12 8 8 4 9 7 9 13 8 7 7 12 51 72 62 58 53 45 42 37 32 26 21 26 29 23 20 15 13 11 10
3 1 4 9 11 10 10 20 15 11 7 7 8 20 21 13 7 22 29 29 32 8 7 7 8 10 8 7 4 8 11 8 13 20 48 68 63 58 52 50 45 41 38 31 26 30 29 22 17 18 13 10 11 12
4 1 5 9 11 12 18 8 7 7 10 10 6 7 16 23 32 35 40 42 18 5 14 9 15 7 9 9 4 7 8 16 28 56 60 58 51 44 44 44 41 41 37 30 25 27 26 22 21 15 14 5 5 10
1 4 6 9 22 7 5 8 6 5 9 10 10 4 15 16 30 34 38 33 21 7 10 7 10 6 7 7 11 22 39 46 63 52 48 43 38 38 37 33 39 39 36 30 29 28 22 20 20 17 14 8 7 7
4 1 7 16 17 3 5 6 6 6 6 5 7 12 17 30 40 35 28 23 8 6 6 5 7 14 17 20 36 49 56 62 62 50 40 37 31 30 34 36 40 41 35 29 24 20 23 16 17 21 8 6 2 5
3 6 15 19 6 6 6 4 8 7 6 6 10 27 10 15 20 10 9 19 3 6 4 2 13 25 23 36 43 57 61 56 52 48 46 41 34 29 34 35 37 41 33 32 29 28 24 14 14 12 10 6 9 16
11 10 9 4 4 3 8 10 7 6 2 3 12 14 9 7 1 7 10 19 9 9 11 2 25 41 47 57 60 52 48 44 36 32 36 37 43 43 42 41 36 33 33 31 32 30 27 20 13 11 4 11 20 23
3 2 4 4 5 5 8 10 7 12 4 5 7 7 2 6 8 10 11 7 8 3 9 18 39 46 61 58 50 44 41 38 35 34 32 32 33 33 37 38 31 29 35 32 27 24 26 23 13 11 14 17 6 12
6 5 5 5 7 8 8 2 2 4 6 5 2 4 5 6 5 10 1 4 6 10 13 46 52 52 47 42 43 43 35 32 29 29 28 32 32 30 34 34 24 21 23 33 27 18 18 20 22 19 11 4 12 6
6 4 5 6 8 8 6 6 3 4 3 1 2 2 5 10 4 5 5 9 28 19 35 49 42 41 48 44 44 41 36 34 33 29 28 28 31 40 31 34 25 23 26 29 28 25 21 17 20 19 21 17 13 5
4 4 6 5 3 4 2 6 5 3 1 7 7 2 6 3 4 7 5 26 25 37 40 45 48 41 38 37 38 37 31 27 23 25 28 32 35 41 34 32 32 27 27 26 23 16 12 12 13 17 21 19 12 8
4 6 7 7 10 6 3 5 3 3 3 5 2 2 4 4 8 5 13 12 44 50 42 33 29 25 24 27 28 29 27 23 21 16 27 32 36 30 25 30 32 32 29 25 20 20 23 11 7 18 27 19 10 9
7 6 7 8 13 11 6 6 3 5 4 5 1 8 5 7 3 6 13 20 41 47 37 38 29 19 19 17 26 32 30 25 23 27 27 30 33 26 26 19 22 15 21 24 20 17 14 13 8 18 25 20 12 11
8 19 21 10 7 6 11 5 6 9 11 8 5 5 5 7 15 20 21 13 27 24 28 31 28 20 16 24 23 39 34 35 38 34 36 40 39 36 34 25 16 17 20 17 9 4 4 12 14 17 10 12 13 16
11 23 12 15 7 8 12 11 14 19 22 22 14 19 19 24 27 27 23 21 28 32 26 23 25 24 20 21 31 34 33 34 34 19 31 45 42 33 26 24 26 28 16 10 5 8 14 10 11 9 10 11 13 19
14 15 13 9 7 15 17 17 15 13 12 11 15 19 15 15 29 30 26 25 26 26 25 29 24 21 28 36 33 31 28 23 16 18 25 36 26 26 26 26 25 19 15 7 3 4 5 2 3 3 9 17 25 32
6 7 5 7 5 9 10 8 7 7 6 7 7 13 17 13 11 12 19 16 19 21 25 29 35 39 34 24 27 20 13 21 23 24 34 28 26 31 27 24 21 17 13 8 6 6 1 2 5 10 17 22 17 23
3 6 6 3 8 7 9 6 7 6 6 5 5 10 10 5 6 6 12 13 13 19 26 25 24 31 30 32 29 19 17 15 19 32 36 27 34 32 27 20 21 21 15 12 6 6 10 5 5 10 9 13 18 15
Wind_Direction_850mb
331 332 322 312 309 308 306 298 347 328 310 306 297 284 286 282 290 334 169 131 220 273 278 254 265 319 344 359 55 331 29 4 43 64 104 202 114 225 86 114 165 145 126 132 93 90 253 76 168 182 152 131 142 140
321 323 328 319 312 307 304 287 286 284 292 308 303 284 282 278 269 291 196 239 273 258 272 256 249 266 277 311 297 343 261 147 154 89 81 110 86 54 113 175 27 62 176 163 164 209 288 99 132 128 136 140 150 137
310 315 319 323 308 302 304 271 283 283 277 292 306 297 277 273 265 260 247 250 280 280 288 263 235 200 200 355 350 297 12 115 141 125 143 144 99 124 129 233 111 73 146 98 92 279 127 118 122 129 131 130 130 116
304 305 309 317 318 302 297 270 261 268 277 285 290 292 274 265 258 255 258 255 291 291 291 268 223 242 192 190 271 6 75 98 111 108 88 113 125 182 187 157 124 190 102 127 45 195 128 128 140 139 133 126 131 128
305 299 298 307 317 306 302 293 268 266 271 281 289 286 266 257 257 253 253 235 240 240 284 296 278 194 191 221 246 242 223 169 99 71 70 163 141 113 49 85 121 182 166 157 199 188 151 150 145 149 141 137 126 100
303 300 293 296 308 304 302 296 283 275 276 279 281 277 256 248 248 245 229 220 210 229 303 313 312 192 184 189 189 224 231 207 168 133 135 132 136 129 103 161 262 233 206 150 146 155 139 139 143 151 143 133 113 7
299 297 289 288 296 302 297 298 291 284 281 280 274 266 245 237 229 214 200 175 176 180 262 307 314 196 183 179 174 157 168 189 177 130 123 149 127 120 105 163 185 140 139 136 140 137 123 143 150 149 138 118 68 36
293 294 287 284 287 299 292 296 289 286 279 273 265 252 233 232 238 228 176 159 178 205 257 249 267 224 181 157 146 148 134 125 56 105 123 118 99 71 100 205 144 138 138 140 145 167 162 151 150 144 135 132 138 108
283 289 282 277 279 293 289 293 289 287 273 259 250 215 206 211 198 181 192 204 218 219 268 210 188 217 169 125 148 116 95 52 17 84 76 103 323 188 197 162 159 156 155 151 145 142 144 153 151 146 150 144 138 111
280 282 274 268 275 290 284 292 291 290 255 238 187 164 190 174 165 148 159 181 193 209 227 237 227 249 165 128 75 99 50 124 111 260 124 69 231 269 172 170 166 166 161 156 141 147 160 161 166 160 158 143 122 117
281 276 271 259 266 282 287 283 293 290 196 170 187 218 151 154 152 179 199 191 186 233 212 233 210 177 172 125 161 141 161 143 122 252 131 207 271 212 178 169 167 164 164 168 169 155 163 165 170 176 155 136 126 127
278 269 259 251 260 280 279 270 290 248 175 181 234 260 142 174 200 178 201 210 187 213 200 184 199 200 151 157 110 175 120 65 218 154 97 182 248 171 167 156 156 158 164 156 157 164 159 164 171 164 146 130 120 135
276 257 246 244 248 280 254 267 287 224 194 189 229 235 173 158 135 186 195 229 203 205 180 175 172 174 138 142 83 111 116 208 126 75 210 221 168 161 156 154 155 164 163 155 158 160 161 157 146 144 132 128 125 119
259 246 242 234 271 260 240 259 265 187 171 206 208 199 203 194 229 201 205 198 217 206 183 185 155 158 136 85 136 109 199 104 98 147 227 214 169 163 161 163 161 166 169 170 167 162 157 147 138 130 119 110 109 105
233 245 244 256 264 222 230 251 226 176 200 230 216 235 224 336 301 309 309 255 237 331 178 143 128 136 100 106 74 112 124 225 196 216 223 181 172 167 166 169 173 171 171 171 166 161 152 148 141 132 127 120 110 98
218 273 262 229 201 209 219 225 173 177 253 231 242 261 281 333 320 352 359 13 29 301 182 179 128 99 156 134 134 173 145 205 242 215 200 167 167 171 173 178 180 176 174 170 163 155 156 157 151 136 137 149 148 120
177 269 4 172 183 185 183 154 158 207 238 250 239 232 268 287 298 348 349 343 334 239 183 141 110 181 117 90 135 160 179 205 193 172 163 165 169 172 177 179 178 174 171 164 158 151 145 149 160 171 188 188 208 201
123 104 144 165 166 167 187 190 200 226 245 241 258 68 277 267 297 319 332 340 345 257 179 185 124 95 134 142 222 212 167 151 161 157 158 163 167 171 173 172 173 173 170 164 155 155 168 181 176 182 193 205 203 161
217 162 180 175 165 168 201 205 213 258 259 287 286 267 256 304 315 304 314 327 322 231 168 134 100 139 165 183 158 167 161 155 153 152 156 162 165 164 167 171 169 171 166 162 171 182 187 203 204 191 177 173 112 146
313 41 201 199 189 253 229 215 212 253 263 270 296 339 297 282 291 300 317 339 350 140 75 68 161 168 154 175 179 167 158 155 154 150 152 156 160 165 172 172 172 170 170 172 179 183 173 165 184 184 201 198 216 252
227 201 191 190 224 268 299 297 235 234 266 242 342 319 260 281 279 292 330 358 73 40 24 54 172 156 161 166 164 154 156 162 170 176 173 166 170 176 172 174 174 179 183 186 185 181 178 162 138 142 175 228 308 306
117 121 181 255 305 233 257 248 231 179 334 328 299 263 217 186 225 354 31 33 20 15 12 352 151 149 149 153 155 157 159 167 170 168 169 169 168 172 177 178 179 185 187 184 185 194 195 187 161 163 281 316 312 319
70 34 274 244 260 245 266 253 205 176 239 207 241 269 244 104 99 64 50 13 308 312 58 129 159 150 149 152 157 163 169 167 164 165 167 172 172 172 176 176 171 175 181 183 193 193 190 190 196 217 267 289 261 108
268 267 251 248 215 271 266 263 136 138 262 261 278 329 17 60 103 85 204 251 116 139 159 130 137 138 143 153 165 174 170 163 156 157 166 166 165 170 169 171 186 184 200 208 193 195 197 194 212 232 246 209 182 120
298 293 304 276 240 245 177 169 201 253 154 101 269 213 171 153 136 175 145 172 195 147 141 140 143 149 147 151 155 157 160 163 162 163 174 176 164 157 160 162 164 158 156 163 168 177 185 203 222 243 260 249 220 174
251 259 247 299 305 298 75 166 205 155 154 213 211 208 193 186 117 109 181 160 170 158 151 154 158 162 160 162 158 167 167 171 174 168 167 173 174 169 171 179 175 171 169 177 186 200 232 204 219 228 207 208 220 230
292 229 269 286 297 286 234 43 109 244 273 21 22 262 197 147 68 36 97 131 181 183 191 178 169 160 157 163 171 169 166 169 193 177 163 169 173 177 184 182 180 177 189 203 234 243 217 224 276 217 199 193 217 256
274 242 232 271 230 211 178 210 270 74 195 237 215 30 65 34 57 349 31 163 171 178 181 183 180 182 183 184 187 185 182 176 178 172 164 168 177 180 171 173 179 203 223 226 227 220 261 261 237 189 198 207 222 274
296 324 336 345 353 64 41 55 9 42 10 28 87 59 77 77 67 62 59 116 176 169 185 193 193 190 202 195 189 190 190 183 180 178 184 173 170 179 190 195 220 207 182 184 194 306 204 186 165 174 194 217 256 291
337 351 350 359 27 30 18 37 66 70 68 73 82 99 96 87 72 74 71 109 148 167 171 176 187 168 153 182 181 185 190 191 195 206 207 188 187 191 196 208 187 174 177 168 178 82 72 155 182 216 247 266 284 291
346 355 1 6 40 42 79 80 67 63 67 79 88 99 106 96 81 80 88 103 127 140 146 149 157 190 177 172 168 173 185 195 203 188 181 176 178 187 170 172 182 180 171 172 193 222 233 2 184 280 308 313 310 312
15 33 32 18 8 13 19 45 45 46 50 60 69 102 122 91 68 54 88 110 140 143 147 155 163 167 167 168 179 173 174 187 194 183 174 177 164 162 162 172 182 191 195 215 238 229 309 350 319 322 323 327 336 319
4 53 70 25 358 357 20 45 51 77 62 79 101 122 108 89 96 111 114 124 154 172 168 163 164 184 193 209 212 208 192 196 178 180 183 169 173 183 178 177 172 172 180 185 192 239 257 258 334 323 312 316 318 319